Probability
0 0 0 0 0 0 0 0 0 0 0 0 0 0 0 0 0 0 0 0 0 0 0 0 0 0 0 0 0 0 0 0 0 0 0 0 0 0 0 0 0 0 0 0 1 1 1 0 0
0 0 0 0 0 0 0 0 0 0 0 0 0 0 0 0 0 0 0 0 0 0 0 0 0 0 0 0 0 0 0 0 0 0 0 0 0 0 0 0 0 0 0 0 0 0 0 0 0
0 0 0 0 0 0 0 0 0 0 0 0 0 0 0 0 0 0 0 0 0 0 0 0 0 0 0 0 0 0 0 0 0 0 0 0 0 0 0 0 0 0 0 0 0 0 0 0 0
0 0 0 0 0 0 0 0 0 0 0 0 0 0 0 0 0 0 0 0 0 0 0 0 0 0 0 0 0 0 1 0 0 0 0 0 0 0 0 0 0 0 0 0 0 0 0 0 0
0 0 0 0 0 0 0 0 0 0 0 0 0 0 0 0 0 0 0 0 0 0 0 0 0 0 0 0 0 0 0 0 0 0 0 0 0 0 0 0 0 0 0 0 0 0 0 0 0
0 0 0 0 0 0 0 0 0 0 0 0 0 0 0 0 0 0 0 0 0 0 0 0 0 0 0 0 0 0 0 0 0 0 0 0 0 1 1 0 0 0 0 0 0 0 0 0 1
0 0 0 0 0 0 0 0 0 0 0 0 0 0 0 0 0 0 0 0 0 0 0 0 0 0 0 0 0 0 0 0 0 0 0 0 0 1 1 0 0 0 0 0 0 0 0 1 2
0 0 0 0 0 0 0 0 0 0 0 0 0 0 0 0 0 0 0 0 0 0 0 0 0 0 0 0 0 0 0 0 0 0 0 0 0 0 0 0 0 0 0 0 0 0 0 1 2
0 0 0 0 0 0 0 0 0 0 0 0 0 0 0 0 0 0 0 0 0 0 0 0 0 0 0 0 0 0 0 0 0 0 0 0 0 0 0 0 0 0 0 0 0 0 0 1 2
0 0 0 0 0 0 0 0 0 0 0 0 0 0 0 0 0 0 0 0 0 0 0 0 0 0 0 0 0 0 0 0 0 0 0 0 0 0 0 0 0 0 0 0 0 0 1 1 1
0 0 0 0 0 0 0 0 0 0 0 0 0 0 0 0 0 0 0 0 0 0 0 0 0 0 0 0 0 0 0 0 0 0 0 0 0 0 0 0 0 0 0 0 0 0 0 0 0
0 0 0 0 0 0 0 0 0 0 0 0 0 0 0 0 0 0 0 0 0 0 0 0 0 0 0 0 0 0 0 0 0 0 0 0 0 0 0 0 0 0 0 0 0 0 0 0 0
0 0 0 0 0 0 0 0 0 0 0 0 0 0 0 0 0 0 0 0 0 0 0 0 0 0 0 0 0 0 0 0 0 0 0 0 0 0 0 0 0 0 0 0 0 0 0 0 0
0 0 0 0 0 0 0 0 0 0 0 0 0 0 0 0 0 0 0 0 0 0 0 0 0 0 0 0 0 0 0 0 0 0 0 0 0 0 0 0 0 0 0 0 0 0 0 0 0
0 0 0 0 0 0 0 0 0 0 0 0 0 0 0 0 0 0 0 0 0 0 0 0 0 0 0 0 0 0 0 0 0 0 0 0 0 0 0 0 0 0 0 0 0 0 0 0 0
0 0 0 0 0 0 0 0 0 0 0 0 0 0 0 0 0 0 0 0 0 0 0 0 0 0 0 0 0 0 0 0 0 0 0 0 0 0 0 0 0 0 0 0 0 0 0 0 0
0 0 0 0 0 0 0 0 0 0 0 0 0 0 0 0 0 0 0 0 0 0 0 0 0 0 0 0 0 0 0 0 0 0 0 0 0 0 0 0 0 0 0 0 0 0 0 0 0
0 0 0 0 0 0 0 0 0 0 0 0 0 0 0 0 0 0 0 0 0 0 0 0 0 0 0 0 0 0 0 0 0 0 0 0 0 0 0 0 0 0 0 0 0 0 0 0 0
0 0 0 0 0 0 0 0 0 0 0 0 0 0 0 0 0 0 0 0 0 0 0 0 0 0 0 0 0 0 0 0 0 0 0 0 0 0 0 0 0 0 0 0 0 0 0 0 0
0 0 0 0 0 0 0 0 0 0 0 0 0 0 0 0 0 0 0 0 0 0 0 0 0 0 0 0 0 0 0 0 0 0 0 0 0 0 0 0 0 0 0 0 0 0 0 0 0
0 0 0 0 0 0 0 0 0 0 0 0 0 0 0 0 0 0 0 0 0 0 0 0 0 0 0 0 0 0 0 0 0 0 0 0 0 0 0 0 0 0 0 0 0 0 0 0 0
0 0 0 0 0 0 0 0 0 0 0 0 0 0 0 0 0 0 0 0 0 0 0 0 0 0 0 0 0 0 0 0 0 0 0 0 0 0 0 0 0 0 0 0 0 0 0 0 0
0 0 0 0 0 0 0 0 0 0 0 0 0 0 0 0 0 0 0 0 0 0 0 0 0 0 0 0 0 0 0 0 0 0 0 0 0 0 0 0 0 0 0 0 0 0 0 0 0
0 0 0 0 0 0 0 0 0 0 0 0 0 0 0 0 0 0 0 0 0 0 0 0 0 0 0 0 0 0 0 0 0 0 0 0 0 0 0 0 0 0 0 0 0 0 0 0 0
0 0 0 0 0 0 0 0 0 0 0 0 0 0 0 0 0 0 0 0 0 0 0 0 0 0 0 0 0 0 0 0 0 0 0 0 0 0 0 0 0 0 0 0 0 0 0 0 0
0 0 0 0 0 0 0 0 0 0 0 0 0 0 0 0 0 0 0 0 0 0 0 0 0 0 0 0 0 0 0 0 0 0 0 0 0 0 0 0 0 0 0 0 0 0 0 0 0
0 0 0 0 0 0 0 0 0 0 0 0 0 0 0 0 0 0 0 0 0 0 0 0 0 0 0 0 0 0 0 0 0 0 0 0 0 0 0 0 0 0 0 0 0 0 0 0 0
0 0 0 0 0 0 0 0 0 0 0 0 0 0 0 0 0 0 0 0 0 0 0 0 0 0 0 0 0 0 0 0 0 0 0 0 0 0 0 0 0 0 0 0 0 0 0 0 0
0 0 0 0 0 0 0 0 0 0 0 0 0 0 0 0 0 0 0 0 0 0 0 0 0 0 0 0 0 0 0 0 0 0 0 0 1 1 0 0 0 0 0 0 0 0 0 0 0
0 0 0 0 0 0 0 0 0 0 0 0 0 0 0 0 0 0 0 0 0 0 0 0 0 0 0 0 0 0 0 0 0 0 0 1 2 2 1 0 0 0 0 0 0 0 0 0 0
Wind_Speed
2 3 3 4 7 6 2 2 0 1 2 2 3 5 5 3 2 2 1 2 2 1 1 2 5 6 6 7 7 8 8 8 9 9 9 10 10 10 10 10 10 10 11 10 10 10 9 10 9
1 2 5 6 6 4 2 2 1 1 3 3 4 4 4 3 2 3 1 2 3 2 2 2 5 6 7 7 7 7 8 8 9 9 9 9 10 10 10 10 10 10 10 10 10 10 10 10 10
1 4 5 5 4 3 1 0 1 2 2 2 3 3 3 2 2 3 2 3 3 3 2 2 5 7 7 7 7 7 7 8 8 8 9 9 9 9 9 10 10 10 10 11 11 10 11 11 10
3 5 6 6 3 1 2 1 2 3 3 3 3 4 2 1 2 3 4 4 4 3 2 2 5 7 7 7 7 8 8 8 8 8 8 9 9 9 9 9 10 10 10 10 11 11 11 10 10
4 5 6 4 2 2 1 1 2 3 2 3 3 4 2 3 3 5 5 4 4 2 2 2 5 6 7 7 7 8 8 8 8 8 8 8 9 9 9 9 9 10 10 10 11 10 10 10 10
5 5 5 2 2 2 1 0 2 3 3 3 4 3 1 1 4 4 4 4 3 3 2 2 5 6 6 7 7 8 8 8 8 8 8 9 9 9 9 9 10 10 10 10 10 11 11 11 11
5 5 3 2 1 1 0 1 3 3 3 2 4 4 1 1 2 4 4 4 3 3 3 2 3 4 6 7 7 7 8 8 8 8 8 8 9 9 9 9 10 10 11 11 12 12 12 12 12
4 5 3 1 1 1 0 1 2 3 2 2 3 5 4 4 4 5 5 4 3 3 2 2 3 3 3 4 6 7 7 8 8 8 8 9 9 9 9 8 10 10 11 12 12 12 12 12 12
4 6 2 2 3 1 1 2 1 2 4 2 1 3 3 8 8 6 4 3 2 2 2 2 2 3 3 3 4 5 6 7 7 7 8 7 5 5 5 8 10 10 10 11 11 12 12 12 11
5 3 3 3 4 3 2 2 2 3 3 1 2 3 6 8 8 7 5 4 3 2 1 1 1 2 2 2 3 3 3 4 4 4 4 4 4 4 5 8 10 10 10 10 11 12 11 8 5
3 3 1 1 2 3 3 1 2 5 2 4 5 6 8 8 7 6 5 4 4 3 2 2 1 2 2 2 2 2 2 2 3 4 4 3 3 3 4 3 5 5 7 5 7 7 5 5 4
2 0 1 1 2 3 3 3 2 3 4 3 5 9 9 9 8 7 7 5 3 2 2 2 2 2 2 2 2 2 1 2 2 2 3 3 2 3 3 3 3 3 3 3 4 3 4 5 5
2 0 0 1 2 2 4 3 2 1 1 3 6 7 8 8 6 5 5 4 4 4 3 3 3 3 2 2 1 2 1 1 1 1 2 3 2 2 2 2 2 3 3 3 3 3 4 4 5
1 1 2 2 2 1 4 1 2 2 1 4 6 6 6 7 6 4 4 4 4 4 4 3 3 4 4 2 2 1 1 1 1 1 1 2 2 2 2 2 2 2 2 2 3 3 3 3 4
2 3 4 2 2 0 4 3 2 2 3 4 4 4 4 4 4 5 5 5 5 5 4 4 4 4 4 3 3 2 2 2 1 1 1 1 2 2 2 2 2 2 2 3 3 3 3 4 4
4 4 2 3 1 1 4 2 5 1 4 3 3 3 3 3 3 4 4 4 4 4 4 4 4 5 4 3 2 2 2 2 1 1 1 1 2 2 2 2 2 2 2 2 3 2 3 3 3
4 1 1 3 1 2 3 4 4 1 4 4 3 3 3 2 2 2 3 4 4 5 5 5 4 5 4 4 3 2 2 2 1 1 1 1 2 2 2 2 2 2 2 2 2 2 2 2 3
2 2 1 3 1 2 2 4 4 0 3 3 3 3 3 3 4 3 2 2 3 3 4 5 4 4 4 3 3 2 1 1 1 1 1 1 1 2 2 2 2 2 3 2 2 3 3 2 2
4 3 2 4 2 2 2 4 5 1 1 2 2 3 4 5 3 1 1 2 2 2 3 4 5 4 4 3 3 2 1 1 0 0 1 1 2 2 3 2 2 2 2 2 3 3 3 2 2
3 2 2 3 0 2 1 3 4 1 2 4 5 4 5 4 1 1 2 2 3 3 3 3 4 4 4 3 3 2 2 1 1 0 1 1 2 2 2 3 2 2 2 3 3 3 2 1 1
1 3 3 3 2 2 1 4 4 3 1 1 1 2 2 3 4 3 3 3 3 3 4 4 4 4 4 4 3 3 3 2 1 1 0 0 1 2 2 3 3 2 2 2 2 3 3 2 1
3 3 4 2 1 2 1 3 6 3 2 2 2 1 2 2 2 2 3 3 4 4 3 3 3 3 3 4 4 4 3 2 2 1 0 0 1 1 2 2 3 3 2 2 2 2 2 3 1
4 1 2 1 2 0 1 1 7 2 2 4 3 3 2 2 3 3 3 3 3 3 3 3 4 3 3 4 5 5 3 2 1 1 1 0 1 1 1 2 2 2 2 2 2 2 2 2 2
2 4 4 4 3 1 2 3 5 2 4 4 3 2 2 2 2 2 1 1 1 2 2 3 4 4 3 4 4 5 5 4 3 2 1 0 0 0 0 1 1 2 1 2 2 2 3 2 2
4 5 3 4 3 4 2 2 6 4 3 3 3 2 1 1 1 1 1 1 2 2 3 3 4 3 3 4 4 4 5 5 5 3 3 2 1 1 1 1 1 1 2 2 2 2 2 2 3
2 5 5 4 3 4 2 3 5 3 3 2 1 0 1 0 1 1 2 2 2 2 2 3 4 3 3 3 3 3 4 3 2 3 3 3 2 2 2 2 2 2 2 2 2 2 2 2 2
4 2 4 5 1 1 4 5 6 2 4 4 3 3 1 0 0 0 1 2 2 2 2 2 3 3 3 3 3 3 3 3 3 3 2 2 1 2 2 2 2 2 1 2 2 1 2 2 2
4 6 4 4 2 3 4 3 4 4 4 4 3 2 1 1 1 1 0 1 1 1 1 1 2 2 2 2 2 3 3 3 2 2 2 2 2 1 1 1 1 1 1 1 2 1 1 2 2
2 3 4 3 3 4 3 6 3 3 2 2 3 2 1 1 1 0 0 1 1 1 1 1 1 2 2 2 2 2 2 2 2 2 2 2 2 2 2 2 1 1 2 2 2 1 2 2 2
3 4 5 4 3 3 3 6 3 1 2 1 2 2 2 1 1 0 0 1 2 1 1 1 1 1 1 2 2 2 2 2 2 1 1 2 2 2 2 2 1 1 1 2 3 2 2 2 3
Wind_Direction
12 58 70 56 54 52 47 343 7 39 51 35 63 80 92 82 93 127 261 142 132 105 62 78 84 85 84 85 86 85 81 80 80 79 80 80 79 78 78 78 76 75 77 79 79 79 80 80 82
44 68 54 58 77 68 350 325 69 88 143 137 72 72 73 65 71 110 121 149 122 110 82 87 89 85 83 85 84 83 83 80 80 79 78 80 81 80 80 77 76 76 76 78 77 76 78 78 80
66 56 73 68 85 134 158 260 131 84 104 104 74 57 79 95 121 153 177 138 105 90 75 83 93 88 86 85 85 83 82 81 82 81 80 79 79 80 80 78 77 76 75 75 74 75 77 76 77
71 46 54 68 73 192 192 195 145 118 78 58 92 68 55 49 156 159 134 121 107 88 70 79 93 89 86 84 83 85 82 80 81 80 80 79 79 78 77 75 78 77 76 75 73 72 73 73 75
59 70 60 52 23 339 290 215 140 115 89 66 91 89 40 6 94 120 123 117 114 97 68 71 90 87 85 84 86 85 85 84 81 80 79 79 79 79 79 76 74 75 75 74 72 72 73 73 74
55 63 77 71 357 346 355 74 114 95 95 93 99 100 57 55 114 129 119 108 105 104 79 62 81 80 81 84 86 85 84 84 83 80 76 74 76 76 75 74 73 75 75 73 72 73 72 73 73
93 85 104 118 51 2 33 78 111 114 108 134 130 108 104 150 156 126 107 99 93 86 78 58 56 65 73 78 79 81 80 79 79 79 75 72 71 71 69 68 72 77 76 73 74 74 73 74 72
111 95 85 101 127 266 263 95 103 115 120 122 122 136 178 192 135 109 93 84 81 72 67 64 59 57 54 59 75 79 79 77 75 74 73 70 66 64 63 64 71 77 76 74 73 72 71 71 68
84 78 117 183 171 207 169 101 67 87 101 87 110 162 175 134 123 113 97 79 89 99 58 63 65 62 63 63 75 74 74 69 65 62 63 60 48 46 49 56 67 72 75 74 73 72 71 69 64
80 109 199 200 180 169 152 136 137 95 89 87 68 76 114 126 134 138 145 154 165 171 160 108 92 85 77 73 64 53 54 51 51 50 49 51 50 45 52 51 59 63 66 69 70 70 68 62 52
105 155 199 182 168 144 138 127 114 124 172 200 177 155 141 142 148 157 166 172 185 184 174 165 151 118 103 82 78 59 55 55 49 49 54 57 53 45 43 42 43 48 55 54 59 59 52 53 51
104 196 165 165 133 134 143 138 118 165 220 212 173 155 153 159 169 174 177 184 175 166 184 176 158 135 128 109 97 92 76 70 60 49 62 68 61 53 49 48 42 45 49 55 54 60 56 58 55
85 332 22 123 100 121 111 120 146 247 283 117 130 142 160 169 176 182 180 175 171 181 189 183 162 151 146 129 126 111 101 88 80 62 63 80 83 72 62 54 52 52 56 62 63 64 63 61 57
162 63 31 33 70 91 110 84 89 274 117 122 136 154 171 177 176 167 171 178 183 187 190 177 165 160 151 149 148 139 132 113 95 87 83 95 99 91 82 70 63 62 66 69 74 73 70 62 61
88 67 27 19 57 85 98 21 278 254 129 140 156 167 172 184 175 182 188 188 189 191 186 172 172 160 157 160 162 151 142 133 131 130 117 113 109 108 101 90 78 76 81 81 75 65 67 68 62
57 59 19 313 39 77 110 260 277 152 143 168 179 179 179 198 196 196 190 193 191 183 179 175 170 157 158 159 155 142 138 138 147 141 134 131 125 122 110 101 89 85 89 85 85 72 71 64 63
39 77 260 301 341 106 125 245 289 116 151 177 190 190 186 201 228 221 201 195 188 181 177 172 165 155 159 153 140 137 131 133 137 125 121 132 136 131 119 114 101 96 91 83 90 75 86 84 69
208 195 234 251 270 118 167 257 288 239 166 183 190 190 185 203 229 222 199 186 173 164 167 169 165 158 148 130 117 108 96 104 108 114 137 138 130 128 119 112 108 107 103 83 85 88 71 85 82
172 176 234 255 227 142 202 269 287 289 164 193 205 206 209 225 238 194 169 152 134 138 152 163 163 161 141 134 142 144 164 179 121 134 160 145 128 128 125 119 113 114 118 120 110 99 84 62 66
164 182 242 292 346 150 209 276 282 260 205 206 204 209 215 223 215 186 171 153 161 162 166 167 171 163 161 161 155 146 139 143 151 148 105 123 119 124 129 130 133 127 117 111 110 107 97 66 63
189 189 215 235 349 36 53 321 314 314 345 20 219 214 213 214 218 204 185 180 168 175 185 180 176 168 166 150 125 105 83 59 40 31 43 47 132 139 137 143 140 139 139 144 145 136 123 124 51
242 233 208 195 112 303 68 289 296 294 339 330 281 235 227 227 211 196 194 190 189 195 181 164 160 158 161 148 146 146 151 165 195 184 181 42 97 122 130 140 143 146 143 153 165 145 137 130 121
218 246 170 176 155 1 4 187 288 328 312 292 274 248 239 224 199 192 200 201 195 186 168 161 149 153 154 157 161 154 154 157 133 116 102 55 26 60 118 141 141 146 153 163 157 135 131 132 139
152 66 57 53 79 288 248 186 280 275 256 281 286 260 233 216 202 197 206 141 143 137 138 145 155 166 160 159 163 163 162 150 136 138 146 126 9 347 321 139 144 160 168 171 165 150 144 140 130
80 85 31 0 9 257 258 191 249 259 260 252 259 264 241 202 166 164 160 144 135 143 150 157 163 173 170 166 166 167 165 160 163 165 170 170 177 231 236 188 180 187 193 177 154 146 154 153 150
162 140 158 199 226 275 315 238 254 273 303 292 256 168 85 97 126 158 181 171 162 146 150 158 163 175 175 173 172 154 153 155 164 167 167 183 196 209 211 205 203 205 192 171 156 153 171 163 167
138 162 162 137 163 261 278 290 303 329 359 13 33 53 67 345 66 117 165 165 161 158 169 176 167 160 165 168 160 147 152 158 167 171 166 177 198 201 199 198 197 197 186 175 160 165 179 165 179
132 143 103 120 161 254 283 275 266 296 316 345 0 358 328 344 2 9 58 151 145 166 161 144 138 150 144 149 160 152 159 163 167 159 173 185 194 191 168 185 199 197 193 185 173 178 186 165 182
92 96 106 117 154 172 244 268 235 234 269 295 299 324 313 294 283 273 309 122 113 103 117 125 129 112 118 140 146 139 151 146 151 172 194 199 195 181 174 187 179 189 199 183 171 192 183 188 195
150 155 142 152 218 183 190 263 283 281 280 306 335 349 340 306 312 298 135 106 98 102 107 133 138 141 164 165 151 147 150 144 148 181 203 193 197 198 187 177 182 204 206 186 177 193 186 194 205